Wind_Speed
4 4 4 3 1 2 2 3 2 2 4 3 2 2 1 1 1 4 3 2 1 2 3 1 2 4 9 8 9 11 8 4 2 3 3 4 8 19 24 24 24 21 20 19 16 16 17 17 15 15 12 8 6 5 6 5 5 6 6 8 9 9 8 7 8 9 10 9 9 10 10 9 10 10 10 10 11 10 11 12 13 13 14 13 13 13 12 12 12 12 12 12 13 13 13 14 14
4 4 2 1 1 2 1 2 3 3 5 3 2 2 1 3 4 4 3 2 3 3 3 3 7 9 12 11 9 14 12 8 6 4 4 9 10 19 27 26 27 26 24 23 21 20 19 18 15 14 13 12 9 8 7 7 7 7 7 8 9 9 10 10 10 11 11 10 10 11 11 11 11 12 12 12 12 11 11 13 14 14 15 14 13 14 14 14 13 13 13 13 13 13 14 14 15
4 3 2 1 1 2 1 3 3 2 5 3 2 2 1 1 2 5 6 5 6 4 2 5 9 5 6 9 10 11 6 6 9 2 4 15 10 17 27 26 27 25 24 24 24 23 22 20 17 15 14 13 11 11 10 10 9 9 10 10 10 10 10 11 12 12 12 12 12 12 12 13 12 13 14 14 14 13 13 14 14 15 15 15 14 14 14 14 14 14 14 14 13 13 14 14 15
3 1 2 1 2 3 3 4 2 4 4 3 1 4 2 3 5 5 6 4 5 2 4 6 7 5 9 10 6 7 4 3 11 6 3 16 14 16 24 25 25 23 24 24 23 23 22 21 20 19 18 17 15 13 12 11 11 11 12 12 12 13 13 12 12 13 13 14 14 14 14 15 14 15 15 14 15 15 15 15 15 16 16 16 15 15 15 14 14 14 14 14 14 13 14 15 16
3 1 1 1 2 1 3 3 2 5 3 5 2 4 4 5 5 4 4 4 3 5 5 5 5 2 9 7 3 4 4 3 11 15 8 17 21 20 24 25 26 26 26 25 24 24 22 20 20 20 19 20 19 19 17 15 14 13 13 12 13 14 15 14 14 14 14 15 16 16 16 17 17 16 16 16 16 17 17 17 17 18 18 18 17 16 16 16 15 16 16 15 15 15 14 14 16
4 3 2 3 2 1 3 4 4 3 3 5 4 4 6 6 5 6 3 3 2 7 8 7 7 6 7 5 7 7 7 3 8 15 11 18 25 23 25 26 28 30 29 28 27 27 25 22 21 21 19 20 19 20 20 19 19 17 15 13 13 13 15 15 15 15 15 16 16 18 18 18 19 17 17 18 18 18 18 18 18 19 20 20 19 19 18 18 17 17 18 17 17 16 16 15 15
4 2 2 4 2 2 5 4 4 2 1 5 5 5 6 6 5 7 3 1 2 7 9 8 9 11 5 2 7 12 18 15 9 12 17 22 27 27 27 28 30 32 31 30 29 29 28 26 24 24 22 22 21 22 22 21 21 20 18 16 14 13 14 15 14 15 16 16 16 19 19 19 20 18 19 20 20 20 19 19 20 20 21 21 20 20 20 20 20 19 19 19 19 18 17 18 18
2 1 1 4 2 3 5 3 3 3 1 2 3 5 6 5 5 5 3 2 2 5 8 8 11 13 5 3 7 10 20 21 17 20 24 27 30 30 31 32 33 34 32 31 31 31 31 28 26 25 25 24 23 23 23 23 23 22 21 19 18 16 16 16 15 15 16 17 17 20 20 19 21 20 20 20 20 20 19 21 22 22 23 22 22 22 21 22 22 21 20 20 20 20 18 19 20
1 2 2 4 2 3 4 3 1 2 1 2 2 4 4 2 4 5 5 3 4 6 6 6 7 11 4 8 8 6 14 17 22 26 27 29 30 31 33 34 34 34 33 32 32 32 34 33 30 28 26 25 25 25 25 25 25 24 23 22 21 20 19 18 18 17 17 17 18 20 21 21 22 22 22 20 21 21 21 23 24 25 25 24 23 23 23 23 23 22 22 21 21 21 20 19 21
2 2 2 3 3 4 3 1 1 1 2 3 2 2 1 2 4 5 6 5 6 9 6 5 10 10 8 7 5 5 10 12 21 25 26 28 28 31 33 33 32 32 32 32 32 32 33 34 34 32 30 28 26 26 26 26 25 25 24 23 23 22 22 21 20 20 19 19 19 20 21 22 22 24 24 22 23 23 22 24 25 26 27 26 24 23 23 24 24 23 23 22 22 22 21 20 20
3 4 3 4 4 3 2 3 2 2 3 3 3 5 2 3 5 5 5 5 6 9 6 7 10 9 8 5 2 7 11 13 17 20 22 26 28 30 32 32 32 31 31 31 32 33 33 32 33 33 32 31 29 28 27 26 25 24 24 24 23 23 23 22 21 21 21 21 21 20 20 21 22 24 25 25 25 25 24 24 25 26 26 26 26 24 24 24 24 24 23 23 23 22 22 22 21
3 3 3 4 3 2 2 5 4 3 4 3 2 5 0 4 6 4 6 6 4 7 3 3 6 6 7 4 1 8 15 15 14 17 21 24 27 29 30 31 32 32 32 31 32 33 34 34 33 33 34 33 31 30 28 27 26 25 24 23 23 23 23 22 22 22 22 22 22 22 21 21 21 22 24 25 26 27 27 26 26 27 27 27 27 26 25 25 25 25 24 23 24 24 23 24 24
3 1 4 3 3 3 3 5 3 1 4 1 2 2 2 4 5 6 7 6 5 6 4 4 8 7 6 3 2 5 11 14 15 19 21 23 25 26 29 30 32 33 33 33 34 34 34 35 35 34 35 35 34 33 31 29 28 27 25 24 24 24 23 22 22 22 22 23 23 23 22 22 22 22 23 24 25 26 27 28 29 30 30 29 29 29 28 27 25 25 25 24 25 26 26 26 25
3 3 5 2 0 3 4 4 1 2 1 3 2 2 1 3 3 5 8 8 8 3 2 4 6 9 6 3 3 2 6 11 16 20 22 25 24 25 27 28 30 32 33 33 34 34 34 35 36 36 35 37 37 36 35 32 30 29 28 26 25 25 25 24 23 22 22 22 23 23 23 22 22 23 23 24 25 26 27 28 30 32 33 32 32 31 31 30 28 27 26 26 26 27 28 28 27
3 2 4 3 2 2 2 3 3 4 3 3 2 1 4 4 3 5 6 8 5 4 2 8 5 4 5 5 2 2 3 11 17 19 22 25 25 26 25 26 28 30 32 32 33 34 33 33 34 35 35 37 39 38 37 35 33 33 32 30 28 27 26 25 24 24 23 22 23 24 24 23 23 23 24 25 26 27 27 27 29 31 33 34 35 34 33 33 31 29 28 28 28 28 29 30 29
3 3 5 3 2 2 2 2 3 4 2 4 2 1 7 7 5 5 4 4 5 6 5 6 6 4 5 7 8 6 8 13 17 20 23 25 26 26 25 24 25 27 30 30 31 31 31 30 31 33 32 35 38 38 37 36 35 34 35 34 32 31 29 27 26 25 25 24 24 25 26 26 26 25 25 26 28 29 29 29 29 29 31 33 36 37 35 34 33 32 31 30 30 30 30 31 31
4 4 4 3 1 2 1 2 3 3 3 4 3 1 8 5 5 6 6 10 10 8 10 6 6 9 8 10 13 12 13 14 18 23 25 26 26 27 26 25 24 25 27 28 29 30 31 29 28 30 30 33 36 36 36 35 35 35 36 36 35 34 33 32 29 28 28 27 28 28 28 28 29 29 28 28 29 30 31 31 31 31 31 32 34 37 38 36 35 34 33 32 32 31 31 32 33
5 3 4 2 1 2 3 5 5 3 3 3 3 1 9 8 4 5 6 12 11 11 11 9 10 10 11 15 15 14 15 17 22 26 26 24 24 24 24 24 24 23 23 26 27 28 30 27 26 29 30 33 35 35 35 34 34 35 36 36 36 36 36 36 34 31 31 32 32 32 30 29 30 31 30 30 30 30 31 32 32 32 33 33 33 35 38 39 39 37 36 34 34 33 33 34 34
4 3 4 1 4 1 2 6 4 3 5 3 3 1 5 7 8 5 5 5 9 12 7 6 10 8 9 13 13 14 16 20 24 25 23 20 19 19 18 20 22 22 21 22 24 25 28 26 23 26 29 32 35 34 35 34 33 34 35 36 36 36 36 37 36 35 35 36 35 34 32 30 30 30 30 30 30 30 31 31 32 32 33 34 35 36 36 38 40 40 39 37 36 36 35 36 36
2 3 3 4 5 1 3 3 5 4 6 5 2 2 3 3 5 5 9 7 5 10 8 5 8 7 7 8 11 14 16 19 20 21 19 16 16 15 15 16 18 20 20 18 19 21 26 26 21 23 27 30 33 34 34 34 33 33 33 34 35 35 35 35 35 35 36 37 36 35 34 34 33 31 31 30 30 30 31 32 32 32 33 33 35 37 38 38 39 42 41 39 39 39 38 38 38
1 2 3 5 4 3 3 4 5 4 5 6 3 2 4 2 3 7 13 9 2 7 9 9 12 12 9 7 9 13 16 17 15 15 15 14 13 13 13 13 14 17 18 17 18 19 25 26 22 22 25 29 32 32 33 33 33 33 33 33 33 33 33 33 33 33 35 36 36 35 35 37 37 36 34 31 30 31 31 31 31 32 33 33 33 35 38 39 40 42 42 41 41 41 40 40 40
1 2 3 5 3 3 5 5 4 3 4 5 3 4 2 2 4 6 11 7 5 7 7 10 13 13 11 10 10 12 14 14 13 13 11 10 10 11 12 13 13 15 17 18 18 19 24 26 24 23 24 29 32 31 32 32 32 32 33 33 34 34 33 33 32 33 33 33 33 33 35 37 39 39 37 32 31 33 34 33 32 33 33 33 32 32 35 38 39 41 42 43 43 43 43 43 42
1 4 3 3 3 4 5 5 4 4 6 5 3 3 3 4 4 1 3 4 5 7 9 11 12 13 14 13 11 10 10 11 12 12 11 9 8 8 10 13 14 15 17 18 17 19 24 26 25 24 24 28 31 31 31 31 31 31 32 33 34 34 34 34 33 33 32 31 31 32 33 35 37 38 38 37 36 36 36 36 35 34 33 33 32 32 33 35 37 40 42 44 44 43 44 44 44
3 3 4 2 2 4 6 6 5 5 7 3 3 5 4 7 5 2 4 5 7 10 11 13 14 15 15 11 9 9 10 11 11 11 12 11 10 9 9 12 14 15 18 19 19 21 25 25 26 25 25 28 31 31 31 31 31 31 31 32 33 33 34 34 34 34 33 32 31 30 31 34 35 35 37 39 40 39 37 37 36 34 32 33 33 33 33 34 36 37 40 43 44 44 44 44 45
3 3 3 2 2 0 4 4 5 6 5 2 7 6 3 7 6 4 5 7 8 10 11 12 13 12 11 9 8 8 9 10 10 10 10 11 12 12 13 14 16 18 20 20 21 23 25 26 27 27 27 29 31 31 31 32 32 32 32 33 34 34 34 35 35 35 35 35 34 31 31 33 33 34 35 37 40 41 40 38 37 35 33 33 34 34 33 33 35 36 37 40 44 45 45 45 44
3 3 2 1 4 4 0 2 4 5 2 4 8 6 1 6 7 5 4 7 8 10 10 9 9 9 8 8 7 8 8 9 10 9 9 10 13 15 17 17 18 20 20 21 22 23 25 26 27 28 28 30 32 31 32 32 32 32 32 33 33 33 34 34 35 35 35 36 35 35 34 34 33 34 35 35 37 39 40 39 38 36 34 33 33 35 35 34 34 35 36 38 41 44 46 46 44
3 2 1 2 4 5 1 2 3 3 2 4 7 4 5 6 3 2 6 8 9 10 9 7 8 8 8 7 7 9 10 9 10 9 8 10 13 16 18 18 18 20 20 20 22 23 24 26 28 28 29 31 31 31 31 32 32 32 32 33 32 33 33 34 34 34 35 35 35 36 36 36 35 35 35 35 35 37 38 38 38 37 36 35 34 35 36 35 35 35 36 37 39 40 42 45 44
2 1 3 6 5 4 2 3 4 2 2 5 8 6 7 4 2 6 11 10 10 10 9 7 7 7 7 7 6 8 9 10 10 9 9 9 12 14 16 17 17 19 19 20 22 24 24 26 28 28 29 31 31 30 31 32 32 33 33 34 34 35 35 35 35 35 35 35 35 35 35 36 36 36 36 36 36 37 36 36 37 37 37 36 35 34 35 36 36 36 37 38 40 40 39 41 43
1 2 2 7 8 4 4 2 3 2 2 5 7 3 4 7 5 8 14 12 9 10 9 7 7 7 6 7 5 6 8 10 9 8 9 9 11 13 15 17 17 18 18 19 21 23 24 26 27 28 29 30 30 31 32 33 34 35 35 36 36 37 38 38 38 38 37 37 37 37 36 36 35 36 36 38 38 37 36 37 37 36 36 37 36 35 34 35 36 37 37 38 40 40 39 40 40
0 2 2 2 7 5 5 1 1 3 2 3 4 2 5 8 6 10 15 13 12 10 9 8 7 6 6 6 5 5 7 9 7 8 9 9 11 14 15 17 17 17 17 18 21 22 24 26 27 28 29 30 32 33 35 36 37 37 37 37 38 40 41 42 42 41 41 41 41 41 40 38 36 36 37 40 40 37 37 38 38 36 35 36 37 36 34 35 37 38 38 37 38 39 40 40 39
1 1 2 2 1 4 7 0 4 4 2 4 5 4 7 7 4 11 14 13 14 12 10 9 7 6 5 5 6 5 6 8 8 9 11 12 13 14 15 16 16 16 17 18 20 23 24 27 28 29 31 33 35 36 37 38 38 37 37 38 40 42 43 43 42 42 42 43 43 43 41 40 38 37 38 40 40 38 38 39 39 38 36 35 36 36 35 36 36 37 38 37 38 39 39 39 40
3 1 3 3 2 5 8 2 6 6 3 4 6 3 7 6 6 10 11 11 13 11 10 9 8 7 6 5 6 5 6 8 8 10 12 14 14 14 15 15 16 16 17 19 21 24 25 27 29 32 35 36 37 37 38 37 37 36 36 37 39 42 42 41 41 41 41 42 42 41 39 38 38 39 39 38 39 40 40 40 40 39 38 36 35 36 35 36 36 36 38 36 36 39 39 38 39
3 2 2 3 3 3 6 3 3 5 2 0 3 4 5 4 7 9 9 10 10 10 10 9 8 8 7 5 5 5 6 6 7 9 12 14 14 14 14 15 16 16 18 20 22 25 27 29 32 35 36 37 37 37 37 37 36 35 35 38 40 41 39 38 39 40 41 41 41 40 39 40 40 40 39 38 39 40 41 41 41 40 39 38 36 35 34 35 35 34 36 37 35 37 40 38 37
4 2 2 4 3 3 3 5 4 2 2 4 4 5 7 4 7 11 10 10 10 10 11 10 9 7 6 6 5 6 6 5 6 8 10 12 13 13 13 14 15 16 19 20 23 25 28 30 33 34 34 34 35 35 36 34 34 35 37 39 39 39 38 37 38 40 40 41 41 41 42 43 43 42 41 40 40 40 40 42 42 41 40 39 37 35 34 34 34 33 34 37 36 35 40 40 36
4 4 3 4 3 4 4 5 4 2 3 5 4 6 10 6 7 11 10 10 10 10 10 9 8 8 7 7 6 6 6 6 8 10 10 11 11 11 12 14 16 17 20 21 24 27 29 31 32 33 33 34 34 34 34 34 35 37 39 40 39 38 40 41 40 40 40 39 40 41 41 42 42 40 40 40 41 41 40 41 41 41 40 40 38 35 34 33 32 34 34 36 38 37 39 41 39
6 5 4 5 5 6 6 5 5 4 4 7 8 9 10 6 8 11 10 9 9 8 8 7 7 7 7 7 6 7 6 6 11 12 10 10 10 11 12 15 17 18 20 21 23 27 29 30 32 32 32 32 32 32 32 34 36 38 39 39 39 40 42 43 40 38 39 39 39 40 39 38 38 38 39 39 40 39 39 40 40 40 40 39 38 35 33 33 32 33 35 35 37 38 38 40 39
4 3 4 6 6 7 6 4 5 3 3 8 8 9 10 7 8 12 10 9 8 8 9 9 8 7 7 8 7 7 7 6 12 14 9 9 9 11 13 15 17 18 19 20 23 27 28 29 30 30 29 28 29 30 32 33 34 37 38 38 40 42 42 42 41 40 40 40 39 38 37 37 39 42 43 43 42 40 39 40 40 41 40 39 38 35 34 34 32 32 34 34 33 34 35 35 37
3 3 4 6 5 8 8 5 4 1 3 6 5 6 10 9 9 9 9 10 11 13 14 13 11 9 8 9 9 8 6 5 8 11 7 7 8 10 13 15 16 17 18 19 22 25 26 27 27 26 25 26 28 29 30 31 32 34 36 37 40 42 41 40 41 42 43 42 38 36 37 39 39 41 45 46 45 43 40 39 41 41 40 38 37 36 35 34 32 31 31 31 31 31 32 33 35
2 1 1 5 4 5 8 5 2 1 2 5 5 5 8 9 9 8 10 13 12 13 14 13 13 12 9 9 9 8 7 5 6 7 6 6 7 9 11 12 13 15 16 17 20 23 24 25 24 24 24 26 28 28 29 30 33 34 34 35 37 40 41 40 41 42 41 41 40 38 37 37 38 40 43 44 43 41 39 39 40 40 39 37 37 37 36 33 31 31 28 29 30 29 31 33 35
3 2 1 5 4 2 5 5 4 3 2 4 7 8 6 7 10 9 10 10 7 8 9 9 10 11 11 11 9 8 8 7 6 6 5 5 5 6 7 9 12 14 14 16 19 22 22 22 22 24 25 26 27 28 29 30 34 35 35 35 35 35 37 39 42 44 43 43 42 40 38 38 38 39 40 41 43 43 40 39 39 39 39 39 39 38 36 33 31 30 28 27 27 26 27 31 35
4 5 5 7 6 5 7 4 4 5 4 3 5 8 6 7 12 12 4 3 4 6 8 8 9 9 9 9 8 8 8 8 7 6 5 4 4 3 5 7 11 13 13 14 17 19 20 20 22 24 24 25 26 27 29 31 33 35 36 37 36 35 35 35 36 42 47 47 45 42 42 41 39 39 39 40 42 42 41 41 40 40 40 40 40 38 36 35 32 30 29 26 24 24 25 29 33
5 5 9 10 9 8 6 5 5 4 4 4 3 5 6 2 8 10 1 3 6 6 9 12 10 9 9 8 8 8 7 7 6 6 6 5 3 0 3 7 10 10 9 11 14 17 18 19 22 24 24 25 26 27 29 30 31 33 34 34 34 34 36 35 34 38 43 44 45 45 44 42 40 41 40 37 38 41 41 42 41 40 39 39 39 39 37 34 32 32 30 26 24 25 25 26 29
3 5 6 7 6 5 4 4 3 2 3 4 2 1 8 2 3 8 5 8 9 7 9 13 11 10 9 8 8 8 7 7 5 5 6 6 4 1 1 5 8 7 7 9 13 16 18 20 23 25 25 25 27 28 28 29 29 31 30 29 29 28 30 36 40 42 41 41 44 45 44 42 40 39 37 35 38 41 43 42 42 40 38 37 37 38 37 34 34 34 30 25 24 24 24 23 26
3 4 3 4 3 3 2 0 2 3 2 6 2 4 7 7 6 8 8 10 9 9 11 12 12 12 10 9 9 8 8 7 6 5 5 6 6 5 3 3 5 6 7 9 12 15 18 21 23 25 25 25 26 27 26 26 28 29 29 28 28 27 28 34 40 42 42 43 44 43 42 42 40 38 37 37 38 40 42 42 40 38 37 36 36 36 37 37 37 35 29 25 22 22 22 23 27
6 4 3 2 3 4 2 2 4 2 3 7 5 6 4 8 5 2 5 8 10 12 15 15 15 14 11 10 10 9 8 7 7 6 6 8 9 8 5 3 5 6 7 9 12 15 18 21 23 25 26 25 26 26 26 26 26 27 28 29 30 31 31 34 37 39 42 44 44 43 42 41 41 39 38 37 38 39 40 40 38 38 39 38 37 35 36 38 38 35 30 25 22 21 22 24 27
3 3 2 2 1 1 1 2 2 2 2 9 7 7 4 7 4 2 2 6 12 14 14 15 15 12 11 11 10 9 7 6 6 6 8 11 10 7 5 4 7 7 7 9 12 15 18 22 24 25 26 26 26 25 25 25 26 26 27 28 30 32 34 36 38 39 40 40 42 43 43 42 42 41 39 38 38 39 38 38 38 39 39 38 38 36 35 37 38 36 32 27 23 21 22 25 27
2 4 3 4 4 2 2 1 2 3 3 10 8 11 8 6 3 6 5 6 10 12 11 12 13 11 11 12 10 9 7 7 6 6 9 12 10 7 5 6 7 8 8 9 12 16 21 24 24 25 25 25 25 25 25 25 26 25 26 28 29 31 33 35 37 39 39 39 41 43 44 43 42 41 41 39 37 38 38 39 40 40 39 38 38 36 35 36 37 37 34 27 23 21 20 24 28
3 4 3 4 5 3 4 4 3 1 6 7 5 8 8 7 6 6 8 8 7 10 12 16 18 15 14 12 9 8 8 7 7 6 7 8 8 7 7 8 9 8 8 10 14 20 24 25 24 24 25 25 25 25 25 26 26 26 27 28 28 29 30 32 34 37 39 38 40 43 43 43 42 41 40 39 37 37 38 40 41 41 39 37 37 38 38 38 39 38 35 28 24 21 20 23 27
4 3 3 3 4 3 3 3 0 3 7 4 1 4 5 10 10 8 13 13 8 10 13 16 19 17 15 12 9 8 7 7 7 6 6 6 7 8 9 9 9 9 8 11 17 22 24 24 24 24 26 26 26 26 26 26 26 26 27 27 28 29 30 31 32 34 37 38 39 41 41 42 43 42 40 39 37 38 40 42 44 42 40 38 39 40 41 40 39 37 36 30 24 21 20 22 25
4 4 3 2 1 3 4 4 3 5 6 3 2 2 3 9 8 9 14 13 9 11 11 12 15 17 16 12 9 8 7 7 7 6 6 5 7 10 10 10 10 9 8 14 20 22 23 23 24 25 27 28 27 27 27 27 27 27 27 27 28 29 31 31 32 34 37 39 38 39 40 41 42 42 41 40 40 40 43 44 43 42 41 40 39 39 39 38 37 37 36 33 27 22 20 21 24
4 4 4 4 3 2 4 3 4 6 6 3 0 1 4 5 3 5 9 7 5 8 7 7 10 12 12 9 8 8 8 7 6 6 6 6 9 11 10 10 10 7 9 17 21 22 23 24 24 26 29 30 29 28 28 28 28 28 28 27 28 29 30 31 33 34 36 38 39 38 40 41 42 43 42 42 41 40 42 43 42 42 41 39 37 38 39 38 38 37 35 34 29 23 20 21 23
2 3 4 2 4 4 3 3 4 3 5 4 3 4 6 5 3 2 1 2 2 4 5 9 10 10 9 8 8 8 8 7 6 6 6 7 11 11 9 10 8 5 12 17 21 22 23 24 25 27 29 29 29 29 29 30 30 30 30 30 30 30 31 33 35 37 38 39 39 39 41 42 43 43 42 41 40 38 40 42 42 41 40 36 35 38 40 39 38 37 34 34 31 24 21 21 22
2 2 3 4 3 4 2 3 0 2 3 5 3 5 6 2 4 1 4 2 3 4 6 10 11 11 10 9 8 8 8 7 7 6 6 7 10 11 9 8 3 7 13 16 19 22 23 24 25 27 29 30 29 29 29 30 30 32 33 32 32 33 34 36 37 39 41 41 41 41 41 43 42 42 41 39 37 37 38 40 41 41 38 35 36 39 39 36 35 36 34 33 33 27 22 20 20
5 3 5 3 2 3 2 2 2 1 4 5 2 8 10 3 3 2 4 4 6 6 7 9 9 9 10 9 8 8 8 7 7 7 6 8 11 11 8 3 2 8 12 15 18 20 22 24 25 26 29 31 31 30 30 30 30 31 33 34 35 36 37 38 39 40 41 42 43 43 42 42 42 41 40 37 37 37 38 40 40 39 37 36 37 39 38 35 33 35 33 31 32 29 24 20 19
5 3 3 2 2 2 2 2 2 1 4 7 3 6 11 7 5 3 6 10 11 10 8 9 11 12 10 9 9 9 8 7 6 7 5 7 10 9 4 0 4 9 13 15 17 20 22 23 24 25 28 30 31 31 31 32 32 32 33 34 36 39 40 40 41 41 42 43 44 44 43 42 42 41 39 38 38 39 38 38 39 39 37 37 38 39 39 35 32 33 32 29 30 30 25 21 19
2 1 2 1 2 3 2 2 2 2 4 8 5 6 8 6 6 8 13 15 15 13 10 12 14 14 11 9 9 9 8 7 6 7 6 7 9 6 1 0 5 10 13 16 17 19 21 23 24 25 28 30 30 30 30 32 34 34 35 36 38 40 41 42 42 42 43 44 45 44 42 42 42 42 41 39 38 38 37 37 38 39 38 36 37 38 38 34 31 31 31 29 29 29 26 22 20
3 2 2 2 2 1 2 2 2 3 4 6 5 9 10 3 4 8 13 15 15 15 14 14 14 12 10 10 10 9 8 7 7 7 6 6 6 4 2 3 7 11 13 15 16 18 21 22 24 25 28 30 30 31 31 32 33 34 36 37 39 41 42 42 43 43 43 44 44 42 41 42 43 42 41 39 38 37 36 37 38 38 37 35 35 36 37 34 31 31 31 30 28 28 26 22 20
7 6 7 7 6 2 3 5 3 3 5 5 2 11 13 3 3 5 9 11 13 14 16 15 12 12 12 10 10 9 8 8 7 7 6 5 5 4 4 5 9 11 13 14 16 18 20 23 24 25 27 29 30 31 32 33 34 35 36 38 40 41 42 42 43 42 42 42 42 40 40 41 42 41 40 39 38 38 36 35 36 37 36 34 33 36 36 33 29 28 30 30 28 26 25 22 19
Wind_Direction
53 99 91 104 157 26 33 68 62 3 71 77 49 79 315 284 119 71 44 9 55 273 237 191 18 76 102 112 117 93 52 33 27 99 116 313 360 15 26 39 42 52 49 42 36 31 29 27 26 17 5 341 312 295 275 268 296 306 300 288 282 279 276 268 264 265 263 259 256 258 258 259 259 258 258 260 261 265 271 274 277 276 277 279 282 282 278 276 274 273 271 270 266 263 263 265 258
54 104 72 61 69 74 176 78 90 12 54 58 350 118 253 325 48 107 147 132 179 233 218 146 73 84 110 121 98 72 42 11 18 105 90 12 30 31 35 44 49 56 53 49 45 41 36 31 26 17 9 353 334 318 305 294 290 290 295 290 288 287 285 283 277 272 270 270 266 261 261 262 260 263 265 265 264 262 266 269 270 272 275 277 277 277 275 273 270 268 268 269 265 262 258 258 260
50 101 60 83 86 65 105 42 95 82 72 102 282 243 324 10 115 186 196 165 199 212 147 77 64 49 85 82 61 73 56 10 17 71 63 22 28 28 33 45 49 55 55 51 47 44 39 34 30 23 17 5 352 337 329 321 309 300 296 287 288 285 284 287 286 283 277 276 270 266 268 267 262 264 266 267 270 267 266 267 267 269 271 273 274 273 271 270 266 265 266 268 265 260 256 252 255
24 24 359 92 75 31 63 49 119 114 112 157 234 261 262 182 185 211 220 223 231 157 100 69 58 7 60 66 49 82 58 12 19 19 48 21 25 31 38 48 50 56 54 51 49 47 43 38 35 30 27 23 18 6 353 342 329 319 311 298 295 291 287 287 288 291 289 286 279 273 272 270 266 266 266 266 269 269 268 266 265 265 264 266 268 269 269 267 263 261 261 264 268 263 257 250 248
2 352 321 69 84 35 89 71 93 100 164 177 145 252 246 201 187 193 222 275 286 74 88 90 92 45 69 53 12 73 332 288 26 27 44 34 46 52 50 53 53 56 52 51 49 47 44 41 38 34 31 28 26 23 18 10 0 345 331 314 307 302 297 293 287 289 291 293 290 283 277 274 271 268 266 265 265 265 266 265 264 262 261 262 263 265 266 266 263 260 257 255 257 260 262 258 249
17 81 82 51 93 135 84 74 92 98 208 166 146 236 237 218 181 155 172 286 342 66 75 82 105 107 86 64 54 52 359 13 32 28 47 49 56 59 55 56 55 56 54 52 50 47 43 40 40 37 37 33 30 28 23 20 15 8 357 340 325 314 308 303 294 291 291 293 294 290 284 281 278 274 270 268 267 265 264 263 264 264 262 262 260 261 263 265 266 265 264 259 252 250 253 257 257
11 58 48 51 39 44 86 107 127 133 217 160 160 196 223 226 169 139 154 192 44 43 66 87 110 97 68 94 72 38 36 54 56 49 62 60 60 61 58 57 56 55 53 53 50 47 43 39 39 37 38 36 35 33 27 23 19 15 10 2 350 336 328 322 310 303 299 296 296 293 289 286 284 280 275 274 273 268 265 263 263 266 265 264 262 260 262 263 264 265 267 267 263 256 250 248 251
360 18 37 82 37 23 90 116 148 168 157 167 176 192 213 200 148 125 129 133 87 43 76 116 108 86 37 61 83 27 41 56 63 65 66 63 60 60 59 58 56 54 53 53 52 49 46 43 41 39 37 35 35 34 30 27 23 19 15 10 4 355 348 341 330 320 313 307 302 300 297 294 290 285 281 279 277 272 268 266 266 266 266 265 264 262 262 262 262 263 264 266 266 263 258 250 247
40 53 47 81 65 44 74 83 106 186 213 241 222 212 218 150 111 104 103 75 90 69 78 147 102 95 98 69 79 18 33 50 63 66 64 63 60 59 59 57 55 53 52 51 51 51 49 47 46 44 42 40 37 34 31 28 24 21 18 15 11 3 357 351 345 336 328 319 311 306 304 301 297 293 290 285 281 276 271 271 270 267 267 267 265 264 263 262 261 263 263 263 263 263 261 255 250
49 38 84 79 73 69 63 95 79 149 226 244 236 249 246 95 76 84 107 91 90 86 81 93 78 111 133 80 79 21 28 51 63 63 62 64 61 60 58 55 54 52 50 48 47 46 46 46 46 46 45 44 42 38 34 30 26 22 20 16 13 9 2 357 354 348 342 334 325 317 310 305 300 298 296 292 290 286 279 276 274 270 269 270 268 264 263 262 261 262 262 261 260 260 260 256 252
40 351 85 78 65 95 149 165 135 149 262 312 333 301 256 126 90 70 95 101 93 116 132 78 80 121 110 78 71 31 42 60 63 62 62 64 61 59 56 54 53 51 48 45 44 42 40 39 40 41 41 42 42 40 37 34 30 26 22 18 14 10 6 1 357 353 347 342 337 331 323 315 306 300 297 293 292 292 289 284 279 273 269 271 270 264 262 262 262 262 261 260 258 256 256 256 255
67 333 63 84 107 158 175 148 162 196 301 349 359 305 337 93 97 105 97 96 83 121 132 54 139 147 84 82 60 33 45 58 63 66 65 65 62 57 54 51 50 49 47 44 41 39 36 34 32 32 32 34 36 36 36 35 32 28 25 21 18 12 7 2 358 354 350 346 342 338 333 327 319 312 306 299 292 289 288 286 283 278 273 273 272 266 262 261 261 261 261 261 259 255 252 253 255
104 152 81 93 160 140 125 137 179 208 334 328 179 287 45 62 106 150 112 73 23 81 17 331 157 121 78 120 63 27 34 51 67 69 66 65 63 58 53 48 46 45 43 41 38 35 32 30 28 26 24 25 26 27 28 29 28 26 23 19 18 15 11 5 359 355 350 347 343 340 337 334 329 323 318 313 306 298 292 287 282 280 278 276 273 267 264 262 259 258 259 261 260 256 253 252 252
121 152 104 110 106 111 129 130 170 119 46 275 229 271 46 67 124 138 107 74 15 46 20 356 125 100 101 141 37 346 16 55 72 70 67 66 64 60 53 47 44 41 40 38 36 32 29 26 24 22 19 19 18 19 20 20 20 19 18 16 14 12 9 6 2 358 352 347 343 340 337 335 332 327 323 319 317 313 307 299 290 283 279 277 274 269 265 263 259 257 259 260 260 257 255 254 252
122 130 92 98 21 57 124 136 158 131 157 256 262 202 84 63 102 91 88 103 26 311 91 28 34 102 129 141 139 216 64 72 75 71 69 66 63 60 54 47 42 38 36 35 34 30 27 24 22 21 18 15 14 14 14 14 14 12 11 10 9 8 6 3 1 358 355 351 348 344 340 336 332 328 325 322 319 317 315 312 305 294 283 277 275 272 267 262 259 259 259 259 259 257 255 255 255
109 106 67 78 41 61 101 112 121 109 187 236 275 116 88 38 37 70 351 109 81 352 56 24 3 91 109 122 139 139 95 84 78 73 69 63 59 55 51 46 41 36 33 31 31 28 26 24 20 20 18 14 12 12 13 12 12 9 7 6 5 4 2 1 359 356 353 352 351 347 343 340 338 333 328 326 323 320 317 315 312 307 296 282 275 273 270 263 257 257 259 259 258 256 255 254 255
58 80 62 65 87 107 155 155 151 149 219 253 315 24 112 67 37 85 23 63 87 46 61 52 46 80 91 114 128 118 97 87 79 73 65 58 51 47 43 39 35 32 29 27 26 23 22 23 18 17 16 13 12 14 14 13 12 9 7 5 4 2 0 359 358 356 353 351 349 346 344 343 342 339 334 331 327 323 320 317 314 311 306 295 281 273 272 267 259 256 258 260 258 256 255 254 254
55 84 76 76 161 116 170 175 185 159 156 247 302 46 124 124 126 133 57 58 81 73 65 71 73 74 94 113 121 112 96 84 76 71 64 55 49 43 37 32 30 26 24 23 22 20 18 20 17 14 12 11 12 14 14 14 12 10 8 5 4 2 0 359 358 356 352 349 346 345 346 345 342 339 336 334 329 325 321 318 315 311 306 301 291 278 272 270 265 261 259 259 258 256 254 253 252
78 110 75 189 198 121 212 170 170 161 150 215 273 153 122 136 156 141 101 100 100 90 76 79 88 86 99 110 112 105 94 82 74 73 69 62 56 48 39 33 29 24 20 18 19 19 16 17 17 12 10 9 10 12 12 11 10 8 6 4 2 1 359 358 357 354 349 348 348 346 346 344 341 338 335 333 330 327 322 319 316 312 307 302 298 288 276 271 268 264 260 259 258 257 254 251 250
101 102 65 243 205 106 286 176 161 191 158 151 203 173 77 125 157 117 121 142 126 123 139 129 124 134 127 120 111 100 89 83 79 80 78 74 67 57 48 38 31 26 22 18 18 20 15 16 17 11 9 8 9 9 8 8 7 5 3 1 359 358 356 355 355 351 347 347 348 346 343 341 339 337 334 332 330 328 326 324 320 316 312 308 304 294 281 272 268 265 260 258 257 256 252 249 248
82 104 142 222 186 121 259 208 166 177 148 146 172 88 54 23 91 125 136 129 151 178 176 161 154 153 146 147 127 104 90 85 84 85 85 81 72 62 52 41 35 28 24 23 22 20 14 15 16 11 7 7 7 6 5 5 3 2 0 359 356 355 354 351 350 348 345 344 344 342 339 338 337 336 336 334 331 330 328 326 324 320 315 312 309 300 286 275 268 265 261 257 255 253 250 248 246
47 287 206 202 159 133 224 223 189 171 117 108 112 88 80 8 54 134 150 146 191 192 176 156 148 148 148 148 133 110 96 90 84 83 83 81 71 57 47 37 32 25 23 22 22 19 12 12 13 9 6 5 6 3 2 1 0 359 357 355 353 352 350 348 347 344 342 341 340 338 335 335 334 333 334 333 329 327 326 324 322 318 315 312 310 305 294 281 270 265 262 259 255 252 249 247 246
67 295 300 223 171 134 195 218 221 188 107 100 144 118 101 89 75 145 137 147 162 138 138 140 138 143 140 136 132 119 111 110 102 91 81 77 65 50 40 31 26 21 20 20 21 18 11 11 11 9 5 3 3 1 359 358 358 356 353 352 349 349 347 345 344 341 340 338 336 333 332 331 330 329 329 328 327 326 324 323 321 318 315 313 311 308 301 292 279 268 261 258 256 252 248 245 245
108 262 312 274 189 130 179 190 192 155 109 130 130 103 135 145 141 77 78 107 115 114 126 130 130 136 132 130 134 133 133 129 119 100 78 67 57 49 39 30 27 22 20 20 20 16 11 12 12 9 6 2 1 360 358 357 356 353 350 348 346 345 343 342 340 338 337 335 333 330 328 326 324 323 323 323 323 323 322 322 321 319 315 313 313 310 305 299 290 276 265 259 255 251 248 245 243
110 213 287 289 302 147 177 152 130 118 102 71 67 72 188 172 133 97 118 124 119 122 124 125 128 130 129 130 132 135 134 126 117 101 79 62 52 48 41 33 29 24 21 20 18 14 12 12 11 9 5 1 360 359 358 356 354 351 349 346 344 342 340 339 337 335 334 333 331 328 326 324 320 317 317 318 319 318 319 319 319 318 315 313 313 311 307 303 295 284 273 263 255 250 248 245 243
191 185 253 303 314 302 234 99 118 124 114 76 68 50 126 148 103 77 154 144 131 130 125 133 134 132 133 129 131 129 123 119 112 98 81 62 47 43 39 33 30 26 22 20 16 12 12 10 8 6 3 1 359 358 357 355 352 350 346 344 342 340 338 336 334 333 332 330 329 327 325 323 318 314 311 311 313 314 314 315 315 315 313 313 313 311 310 306 299 290 280 268 258 250 246 245 243
189 161 240 273 292 282 251 152 182 153 132 112 105 122 167 169 104 114 192 163 143 135 136 152 140 139 141 134 134 122 115 116 110 96 81 60 46 42 38 32 30 27 22 19 13 10 10 8 5 4 2 359 357 357 355 352 350 347 344 342 340 339 337 335 333 331 329 327 326 324 322 321 318 313 308 307 308 309 309 310 311 311 311 312 312 311 310 308 303 296 286 276 266 256 247 244 242
151 82 326 313 323 288 221 152 204 195 185 153 124 137 173 200 292 181 177 162 154 146 146 162 149 147 148 143 137 121 116 112 105 90 75 59 48 46 40 33 27 24 20 15 10 8 8 5 3 2 0 358 357 356 353 350 348 346 344 343 341 339 338 335 333 330 328 325 323 322 319 317 315 312 307 305 305 304 304 306 306 306 307 310 311 310 310 308 306 301 293 285 275 267 258 249 242
127 68 330 311 355 336 251 172 203 181 193 176 128 100 192 219 253 168 157 155 156 148 151 162 155 157 153 147 141 130 120 108 103 93 77 65 55 48 42 33 26 21 16 12 8 6 6 4 2 1 360 358 357 354 351 349 347 346 345 343 342 340 339 336 333 331 328 326 324 321 318 314 312 310 307 305 304 301 301 303 302 301 303 306 308 308 308 308 308 304 299 293 280 268 261 255 246
74 65 112 313 6 330 272 182 165 180 187 153 134 285 242 235 238 152 151 156 153 151 160 165 159 160 153 149 145 139 131 119 114 99 78 65 57 46 38 31 24 18 11 9 6 5 5 4 2 1 0 358 356 353 351 349 347 346 345 343 342 340 338 336 334 332 329 327 324 321 318 315 311 309 307 305 302 298 299 300 298 296 298 302 304 305 306 307 308 305 302 298 286 270 260 256 249
78 54 66 31 38 283 291 326 141 192 247 89 107 254 257 264 235 160 159 158 156 158 166 167 164 160 155 153 147 148 157 147 122 98 82 69 59 45 36 29 22 15 8 7 5 5 5 5 4 2 1 359 356 354 351 349 347 346 345 343 340 338 336 335 333 331 328 326 323 321 318 315 312 309 307 304 300 297 298 297 295 293 294 297 299 299 302 305 307 306 303 299 291 278 262 255 252
39 36 324 342 181 266 305 290 161 190 273 82 114 240 266 260 205 169 163 162 161 161 168 171 168 165 161 159 152 161 183 168 127 99 86 73 59 45 36 27 19 13 10 8 6 7 6 5 5 3 1 358 355 353 350 348 347 345 343 340 337 336 335 334 333 330 327 325 323 320 317 315 312 309 306 301 297 295 296 295 293 291 291 294 294 294 297 303 306 305 304 300 292 283 270 258 252
1 60 262 257 199 273 314 308 204 197 253 87 173 231 268 246 181 172 171 171 168 162 172 177 172 172 166 165 171 175 182 171 140 111 90 74 61 45 35 25 17 16 14 11 8 7 6 7 6 3 359 356 354 351 349 348 346 343 340 337 336 336 336 334 331 328 325 323 321 318 315 314 312 310 307 301 295 292 293 294 292 289 288 290 290 290 292 299 303 304 304 301 293 286 277 261 249
326 10 282 246 212 235 283 305 300 170 193 239 225 228 252 248 176 179 180 175 175 171 176 179 174 175 172 175 182 182 175 166 161 135 100 78 64 47 35 23 19 21 17 12 10 9 9 8 5 1 357 354 353 351 349 347 344 341 338 336 336 335 334 331 329 326 324 322 319 316 314 312 309 307 306 303 296 291 290 291 290 287 285 286 285 285 289 295 300 302 302 302 298 289 281 266 249
273 282 280 282 264 233 238 277 284 154 204 242 236 247 256 253 182 186 188 177 182 181 175 176 174 173 177 181 183 186 180 178 178 151 111 88 70 49 35 26 23 21 15 11 10 9 9 7 3 359 356 353 351 350 349 345 342 340 338 337 336 334 332 329 328 326 324 322 319 315 314 311 309 306 305 305 300 293 290 288 287 286 283 282 281 280 286 292 297 300 300 302 301 294 286 272 252
233 250 233 253 275 261 232 244 252 189 215 247 231 241 254 240 190 193 193 179 182 181 170 174 179 179 181 183 189 188 186 194 185 163 123 97 76 48 35 30 23 17 12 10 10 10 10 6 1 358 354 351 349 349 348 345 343 341 339 337 335 332 330 328 327 325 323 322 320 318 317 317 316 314 312 311 306 299 294 289 287 285 283 280 275 276 283 289 293 297 300 302 302 297 289 278 260
214 237 238 244 252 272 262 253 267 179 189 254 235 236 254 246 210 201 191 176 178 179 178 186 186 185 186 186 194 189 194 200 182 171 137 99 76 46 36 30 21 13 10 12 12 11 8 4 359 355 351 348 348 348 348 346 344 341 338 336 332 329 328 326 325 325 324 323 322 322 321 318 316 315 314 313 309 304 301 296 291 286 283 278 272 274 280 285 288 293 298 300 299 295 286 280 270
217 225 261 279 242 260 275 267 278 151 176 266 262 246 255 252 231 210 182 178 190 188 185 189 186 188 191 188 194 195 201 200 180 180 156 105 70 43 35 28 19 11 10 13 12 8 4 1 356 351 347 346 346 347 345 343 342 341 337 332 329 326 325 325 323 324 325 324 323 322 320 318 315 314 315 314 310 305 301 300 296 289 283 276 272 275 279 280 284 290 295 298 297 293 283 280 276
231 195 278 289 258 273 292 297 327 53 193 273 290 266 256 259 249 219 194 196 202 198 191 187 181 183 190 189 193 195 198 200 191 191 171 118 68 43 33 26 18 10 11 12 8 5 2 358 352 348 346 345 344 343 343 340 338 339 336 331 328 325 324 324 323 323 325 324 323 321 320 318 315 313 313 314 312 307 303 301 300 294 284 277 275 276 276 275 280 286 290 294 296 293 286 281 278
230 191 208 271 273 296 289 311 344 324 256 259 279 273 254 258 259 237 210 203 195 193 191 188 187 184 187 191 191 187 186 194 197 199 185 127 78 43 32 23 14 10 11 10 5 2 359 354 349 346 344 342 341 341 339 337 336 337 335 330 328 324 322 324 325 325 326 324 322 321 319 318 315 312 311 311 309 307 305 302 301 299 291 283 278 274 272 272 276 282 286 291 293 292 290 284 279
261 213 208 248 266 244 243 291 337 319 303 278 288 286 258 229 244 246 219 165 173 175 174 188 205 199 191 192 193 190 187 188 189 200 201 149 114 41 27 17 9 11 10 5 1 358 355 350 346 343 341 340 340 339 338 337 337 336 335 332 331 328 325 325 326 326 325 324 322 319 317 317 316 312 309 307 307 307 306 304 302 301 297 290 281 272 270 271 272 278 283 287 289 287 288 285 281
295 240 216 233 249 250 263 333 358 342 320 319 2 304 276 225 237 248 191 157 199 186 183 193 202 205 200 195 195 198 197 194 188 186 183 163 152 13 14 8 4 6 1 356 354 353 351 347 344 341 341 341 339 339 337 336 336 335 335 333 331 329 326 324 324 323 322 320 318 316 315 315 315 313 309 306 307 308 307 305 303 301 301 297 287 276 268 267 269 274 279 283 286 286 285 285 280
290 257 208 211 221 238 277 349 359 280 265 293 59 259 275 291 231 237 198 195 208 193 199 200 198 204 200 193 192 197 199 196 196 187 171 166 172 216 332 357 355 347 342 344 346 349 348 345 344 342 341 340 338 337 336 333 333 332 331 328 324 322 318 317 320 320 318 316 314 313 313 313 313 312 309 307 306 307 307 305 302 301 302 303 297 283 271 266 268 270 274 280 285 287 283 280 279
243 245 128 127 175 222 245 141 252 242 272 289 217 167 269 276 250 235 190 193 214 206 209 209 204 206 198 194 196 195 196 187 185 191 181 181 193 209 232 314 327 322 326 334 342 345 345 344 343 342 340 338 336 335 332 330 329 328 327 323 319 316 313 312 316 317 316 315 314 312 312 311 311 310 307 306 306 306 307 305 302 302 304 306 304 293 280 272 267 267 270 277 283 285 282 276 278
243 216 128 118 185 213 216 198 252 297 28 291 236 150 255 267 257 272 164 194 225 217 212 211 208 205 194 196 201 197 195 185 178 180 185 196 202 206 214 272 303 307 314 326 337 340 342 344 343 340 337 335 334 332 329 326 326 325 323 321 317 315 314 313 315 315 315 316 314 312 312 310 309 308 305 305 304 304 305 304 302 303 304 305 305 302 294 279 265 263 268 274 279 280 283 280 277
231 153 106 19 71 163 182 199 256 48 64 266 240 158 217 265 231 133 132 214 231 222 214 213 209 204 195 196 200 198 191 182 182 180 187 197 198 200 219 274 298 301 307 320 330 336 342 344 343 338 334 332 331 330 327 324 324 323 321 319 316 314 315 316 316 315 315 315 313 311 312 311 309 307 305 304 303 303 303 302 303 304 304 304 304 306 305 288 268 262 265 269 275 279 281 280 277
127 77 30 355 10 35 45 79 87 69 246 256 230 180 195 271 243 180 187 219 219 210 207 212 210 202 200 200 195 191 182 178 186 187 196 201 198 201 234 276 290 295 300 313 326 338 344 344 340 334 330 329 328 327 325 322 321 320 318 317 313 312 314 315 316 315 314 314 312 311 311 310 307 306 305 304 302 302 301 301 303 304 304 303 304 304 305 298 282 268 264 265 270 276 281 280 278
94 67 40 351 330 10 24 359 54 105 251 260 233 187 189 240 246 205 222 243 219 197 196 202 203 199 198 198 191 186 180 177 181 190 204 207 206 217 243 269 280 284 290 310 333 344 345 341 336 329 325 325 325 324 323 321 320 318 317 315 311 310 312 313 312 311 312 312 310 310 309 308 307 306 305 303 302 301 300 300 302 304 303 302 303 302 300 301 294 277 264 262 264 270 279 280 279
81 84 61 11 330 352 349 301 240 218 248 255 161 157 201 241 248 236 238 245 227 204 204 200 196 191 191 191 188 183 175 176 181 189 204 202 207 224 242 262 271 270 286 325 344 346 341 335 331 325 321 323 323 322 322 320 318 316 316 314 311 311 311 310 308 306 307 308 307 307 307 307 306 306 304 302 301 300 298 299 301 301 301 300 300 300 299 299 297 283 266 261 260 264 274 277 277
138 151 142 136 34 332 290 263 273 276 267 258 118 126 250 261 260 241 241 245 222 209 214 203 188 183 184 183 179 177 174 180 186 190 200 198 205 222 240 259 262 264 306 343 347 341 335 331 328 323 320 322 322 322 321 319 315 314 315 313 311 311 310 308 306 304 305 305 305 304 304 304 304 303 302 300 300 298 296 296 297 297 297 298 298 298 298 299 297 287 270 261 260 261 271 275 276
178 159 137 155 160 220 259 236 258 290 294 275 154 162 227 237 257 249 257 268 222 206 203 174 170 172 171 171 170 175 181 187 192 193 197 200 207 220 241 256 254 273 339 349 342 336 332 328 325 322 320 321 321 321 319 316 314 314 313 312 311 311 309 307 305 303 303 304 303 302 302 302 301 300 299 299 299 297 294 294 294 295 294 295 296 297 298 298 298 291 275 264 260 258 267 274 275
217 128 117 187 179 183 231 214 211 289 312 276 217 222 225 217 251 258 287 307 172 167 152 144 157 163 160 171 178 178 185 191 194 195 200 207 212 222 241 249 252 323 352 345 336 333 329 325 323 321 319 319 319 319 318 316 314 314 314 314 313 313 310 308 306 304 304 304 303 301 300 300 300 299 299 299 298 295 293 293 293 293 293 292 293 297 299 298 297 294 281 266 260 259 262 270 276
170 130 184 224 173 145 211 268 358 65 286 267 214 252 274 293 274 239 102 129 163 151 161 158 162 166 167 179 182 181 188 191 193 194 199 209 213 225 242 244 269 353 347 335 331 329 326 323 321 319 318 318 318 317 316 315 314 314 315 316 315 314 313 310 307 306 306 305 304 301 300 300 300 300 299 298 298 296 293 292 292 292 291 290 293 296 298 298 297 295 285 267 261 262 262 265 275
131 180 219 205 132 110 115 271 324 57 259 268 213 254 270 268 277 301 110 181 202 189 182 168 167 174 180 185 183 185 191 190 194 197 202 208 213 228 240 239 349 349 333 325 326 326 324 322 319 318 317 317 317 317 316 315 315 315 315 316 316 316 314 311 309 308 307 307 305 303 301 300 300 300 299 297 297 296 293 291 290 290 290 291 293 294 294 296 297 296 289 274 264 263 263 264 271
129 209 236 127 174 227 118 166 256 218 259 271 247 270 270 235 221 228 191 201 204 196 186 179 186 190 188 186 185 189 192 189 195 201 210 213 218 232 238 165 342 328 321 322 325 325 322 320 318 317 316 316 317 317 317 317 317 316 315 315 316 316 315 313 311 310 309 307 306 305 302 300 301 301 299 298 297 295 293 290 288 288 289 291 291 290 291 294 295 294 291 280 270 265 263 263 268
72 339 318 58 183 210 179 168 203 187 254 275 285 304 282 225 190 200 200 201 198 188 186 194 199 195 187 184 185 190 191 189 196 202 210 217 223 236 220 343 313 314 316 322 325 323 320 319 319 318 317 317 318 318 318 318 318 317 316 316 316 316 315 313 312 311 310 308 306 304 302 300 301 302 300 298 297 295 292 289 287 287 287 288 288 287 289 292 294 293 289 281 271 267 264 264 268
155 172 227 229 190 186 264 233 167 174 243 265 278 281 269 214 167 196 194 200 198 183 186 201 202 193 187 185 184 186 188 190 199 204 208 220 229 229 205 269 299 308 314 321 323 320 319 318 319 320 319 319 319 319 319 318 317 316 315 315 316 315 314 314 313 312 309 308 307 304 302 302 301 301 301 299 297 295 292 288 286 286 286 285 285 285 287 290 293 291 286 279 269 263 263 264 268
175 184 194 201 196 171 267 258 207 173 231 227 237 270 265 222 153 200 186 195 198 183 189 201 195 188 188 188 186 183 186 192 201 205 204 216 223 211 222 272 296 303 312 320 321 319 319 320 321 321 320 319 319 320 320 318 317 316 315 315 315 315 315 314 314 312 310 309 309 305 303 303 303 302 302 299 297 295 292 287 284 283 283 284 282 283 285 287 291 290 285 278 265 256 258 262 266
Height
794 795 794 794 794 794 797 798 808 814 819 830 831 832 826 818 819 819 820 818 818 815 809 810 810 811 816 826 831 832 833 836 837 840 851 845 836 839 835 831 829 825 825 824 824 824 823 823 822 822 821 820 820 819 819 819 819 819 819 819 818 818 818 818 818 818 817 817 817 817 818 817 817 817 817 817 817 817 817 817 817 816 816 816 815 815 814 814 813 813 813 813 813 813 813 813 814
794 795 794 794 793 795 800 800 813 824 827 837 835 832 826 818 820 820 819 817 815 812 808 810 812 815 818 822 823 825 835 838 835 837 843 840 838 838 834 832 829 826 825 825 825 824 824 823 823 822 821 820 819 819 819 819 819 818 818 818 818 818 817 818 817 817 817 817 817 816 816 816 816 816 816 816 816 816 816 816 816 816 815 815 815 814 814 814 813 813 812 812 812 812 812 812 812
794 795 794 794 794 795 801 802 816 829 831 839 836 827 823 821 820 818 816 812 811 808 809 811 814 820 820 824 825 830 840 839 836 837 839 839 838 837 835 832 828 827 825 824 825 824 824 823 823 822 821 820 819 819 819 819 818 818 818 817 817 817 817 817 817 816 816 816 816 816 815 815 815 815 815 815 815 815 815 815 815 815 815 814 814 814 813 813 812 812 812 811 811 810 810 810 811
794 794 793 793 796 798 803 808 818 826 832 839 835 824 821 822 818 816 814 811 810 807 809 813 821 826 822 830 832 834 842 840 839 839 840 841 839 838 835 832 829 827 825 825 825 824 824 823 823 822 821 820 819 818 818 818 818 818 818 817 817 816 816 816 816 816 816 816 816 815 815 814 814 814 814 813 814 814 814 814 813 813 813 813 813 813 812 812 812 811 811 811 810 809 809 809 809
794 794 793 793 798 801 805 815 822 824 829 834 831 823 819 818 815 815 814 812 810 808 810 814 826 829 826 834 835 840 847 842 841 841 842 843 840 838 835 833 830 827 826 826 825 825 824 823 822 821 821 820 820 819 818 817 816 817 816 816 816 816 816 816 815 815 815 815 815 815 814 813 813 813 812 812 812 812 812 812 812 811 811 811 811 812 811 811 810 810 810 810 809 809 808 808 808
793 793 793 793 797 800 806 819 825 824 823 823 823 820 816 814 814 813 813 812 810 810 812 815 824 828 833 839 839 845 848 843 844 844 844 844 841 838 835 833 830 828 828 827 826 825 825 824 823 822 821 820 820 819 818 818 817 816 815 815 815 815 815 815 815 814 814 814 814 814 813 812 812 812 811 811 811 810 810 810 810 810 809 809 809 810 810 810 809 809 808 808 808 808 808 807 807
793 794 795 797 800 802 812 823 825 825 821 817 817 815 813 812 812 812 814 813 811 813 815 821 823 828 841 842 842 848 847 845 846 847 846 844 841 838 836 833 830 829 829 828 827 826 826 825 824 823 822 821 820 820 819 818 818 817 815 815 814 814 814 813 813 813 813 813 813 812 812 811 811 811 811 810 809 809 809 809 809 808 808 807 807 807 807 808 808 807 807 807 806 806 806 806 806
792 795 798 801 808 811 819 825 824 825 820 815 813 812 812 810 811 812 815 814 814 819 821 825 820 830 848 842 846 852 847 848 848 848 846 843 841 838 837 834 832 831 831 829 828 828 827 825 824 824 823 822 821 820 820 819 818 817 816 815 814 814 813 813 812 812 812 811 811 811 810 810 810 810 809 809 808 808 808 807 807 807 806 806 805 805 805 805 806 806 806 806 805 805 805 805 804
792 795 800 804 812 818 823 826 826 825 819 815 814 812 810 809 810 811 814 815 817 824 827 825 817 831 849 844 849 852 849 851 849 847 845 843 842 839 837 834 834 833 832 831 830 829 827 827 825 824 823 822 822 821 820 819 818 817 816 815 815 814 813 812 812 811 811 810 810 809 809 808 808 808 808 807 807 807 806 806 805 805 804 805 804 804 803 803 803 804 804 804 804 803 803 803 803
794 796 802 808 815 824 828 828 827 823 819 816 814 811 810 810 810 812 814 816 820 827 830 824 821 834 846 848 851 852 851 852 849 848 846 845 843 839 837 836 836 834 834 833 832 831 829 828 826 825 824 823 822 821 821 819 819 817 817 816 815 814 813 812 811 811 810 809 808 808 807 807 807 806 806 805 805 805 804 804 803 803 803 803 803 802 802 801 801 801 801 802 802 802 802 802 802
798 800 802 809 817 825 828 828 827 823 819 816 814 811 810 810 811 815 815 817 820 826 828 824 830 839 843 849 853 853 853 851 849 849 848 846 843 840 838 837 837 835 835 834 833 831 830 828 827 826 825 824 823 822 821 820 819 818 817 816 815 814 813 812 811 810 809 808 807 807 806 806 805 805 804 804 804 803 803 803 802 802 801 801 801 801 800 800 800 800 799 799 799 800 800 800 800
801 806 804 810 819 823 825 827 826 823 821 818 816 811 810 810 812 816 816 818 819 822 823 822 830 835 843 852 853 853 852 851 850 849 848 846 842 840 839 838 837 836 835 834 833 831 830 829 827 826 825 824 823 822 821 820 819 818 817 816 815 814 813 813 812 811 810 809 807 806 805 804 804 803 802 802 802 801 801 800 800 800 800 799 799 798 798 798 798 798 797 797 797 797 797 798 798
802 810 806 812 823 825 826 828 827 826 822 818 816 812 811 811 813 816 817 820 821 821 823 823 825 829 844 854 852 853 851 851 850 848 848 844 842 841 839 838 837 836 835 834 832 831 830 829 828 826 825 824 822 822 821 820 819 818 817 816 815 814 813 812 811 810 809 808 807 806 805 803 802 801 801 800 800 799 799 798 798 798 798 797 796 796 796 796 796 795 795 795 795 795 795 795 795
801 807 806 816 827 825 825 828 828 827 823 817 814 812 811 812 815 817 816 822 827 826 826 826 824 828 844 853 853 854 851 850 849 847 846 843 842 840 838 838 837 836 835 834 833 832 831 829 828 826 825 823 822 821 820 819 818 817 817 816 815 814 812 811 810 809 808 807 806 805 804 803 801 800 799 799 798 797 796 796 795 795 795 794 794 794 794 793 793 792 792 792 793 793 793 793 793
799 804 807 815 823 823 823 827 827 825 823 816 813 811 811 815 816 817 817 820 830 830 826 828 827 829 839 848 852 853 851 850 848 846 844 841 840 839 839 838 837 837 835 835 833 833 832 830 829 827 825 823 822 820 819 818 817 816 815 815 814 813 812 811 809 808 807 806 805 804 803 802 800 799 798 797 796 795 794 793 793 792 792 792 791 791 791 791 790 790 789 789 789 790 790 791 790
799 803 809 815 822 825 823 825 828 827 822 815 813 811 813 821 819 820 823 820 829 832 828 832 832 832 838 843 849 851 850 849 847 845 842 840 839 838 838 838 838 837 836 836 834 834 833 832 830 829 827 825 823 821 819 818 816 815 814 813 812 811 811 809 809 807 806 805 803 802 801 800 799 797 796 795 794 793 792 791 790 790 789 789 789 788 788 788 787 787 787 786 786 786 787 788 788
799 804 812 817 823 825 820 822 826 823 819 814 813 810 814 827 825 825 828 822 830 836 834 837 837 837 841 844 848 849 849 848 845 842 839 839 839 838 838 838 838 837 837 836 835 835 833 832 831 830 829 827 825 823 821 819 817 815 814 812 811 810 809 808 807 806 805 803 802 801 800 798 797 796 795 794 793 791 790 789 788 787 786 786 786 785 785 785 784 784 783 783 783 783 784 784 785
802 810 816 820 824 822 816 817 818 816 816 814 812 810 813 825 827 825 829 832 835 839 840 841 841 843 844 846 848 848 847 846 843 840 840 840 840 840 839 839 838 838 838 837 836 835 834 833 832 831 829 828 826 824 822 820 818 817 815 813 811 810 808 807 806 805 804 802 801 800 799 798 796 795 794 793 791 790 789 787 786 785 784 783 783 782 782 782 781 780 780 780 780 780 780 780 781
805 813 816 820 822 817 813 812 813 813 813 813 812 813 813 818 822 822 831 841 838 839 846 846 845 846 847 847 847 847 846 843 842 840 841 842 842 842 842 842 841 840 839 838 838 837 836 834 833 832 830 828 826 825 823 821 820 818 816 814 812 811 809 807 805 804 803 801 800 799 798 797 796 794 793 792 790 789 787 785 784 782 781 780 779 779 778 778 778 777 777 777 777 777 777 776 777
807 812 815 818 817 815 813 811 810 810 811 812 812 813 813 814 817 820 831 841 839 838 843 844 846 847 846 846 846 845 844 842 842 842 843 844 844 844 844 843 843 842 841 840 840 839 837 835 834 833 831 829 827 825 823 822 820 819 817 816 814 812 810 808 806 805 803 801 799 798 797 796 795 793 792 790 789 787 785 783 782 780 779 777 776 775 775 774 774 774 773 773 774 774 773 773 773
808 810 813 814 814 815 814 811 809 809 810 811 812 812 813 813 814 820 828 835 839 838 834 835 839 842 844 845 845 845 843 843 843 843 843 844 844 844 844 844 844 843 842 841 840 838 837 835 834 833 831 830 827 826 824 822 820 819 817 816 815 813 811 809 807 806 804 802 800 798 796 794 793 791 790 789 787 786 784 782 781 779 777 776 774 773 772 771 771 770 770 769 769 769 769 769 769
808 809 810 811 813 814 814 812 810 810 811 812 813 813 813 814 816 823 823 822 830 832 830 832 835 838 841 843 844 844 843 843 843 843 843 843 844 844 844 844 843 843 842 840 839 838 837 835 833 832 831 829 827 826 824 822 820 818 817 815 814 812 811 809 807 806 804 803 801 799 796 793 791 789 788 787 786 785 783 781 780 778 776 774 773 772 770 769 767 767 766 765 765 765 765 764 765
810 811 810 811 811 812 814 813 811 811 811 811 812 812 814 816 819 825 822 819 824 827 830 833 836 838 840 841 843 843 843 843 843 843 844 843 844 844 843 843 842 842 841 840 839 837 836 834 833 832 830 829 827 825 824 822 820 818 817 815 813 811 810 808 806 805 804 803 801 799 797 794 792 789 787 785 784 783 781 780 778 777 775 773 772 770 768 767 765 763 762 761 761 761 760 760 760
811 812 809 810 810 810 812 811 811 810 808 810 811 812 815 814 817 824 826 826 827 829 833 835 837 839 840 841 842 842 842 842 843 843 843 843 843 843 843 842 842 841 840 839 838 836 835 833 832 831 829 828 826 824 823 821 819 817 816 814 812 810 809 807 805 804 802 801 800 799 797 795 792 790 787 785 782 781 780 778 777 775 773 772 770 768 766 764 763 761 759 758 757 756 756 756 756
811 812 810 809 808 808 810 809 809 808 809 811 811 813 816 815 817 825 830 830 831 832 835 837 838 840 841 841 841 841 841 841 841 841 842 842 842 842 841 841 840 839 838 837 836 835 833 832 831 829 828 826 825 823 821 819 817 815 814 812 810 809 807 805 804 802 800 799 798 797 796 794 792 789 787 785 782 779 778 776 775 774 772 770 768 765 764 762 760 758 756 754 753 752 751 751 751
810 810 810 809 807 807 808 808 807 807 809 810 813 818 822 819 818 827 834 832 833 835 836 838 839 840 840 840 840 840 840 840 840 840 841 841 841 840 839 839 838 838 837 836 835 833 832 831 829 828 827 825 823 821 820 818 816 814 812 810 809 807 806 804 802 800 799 797 795 794 793 792 790 788 786 784 782 779 777 775 773 772 770 768 766 763 761 760 758 756 754 751 749 747 746 746 747
808 808 809 808 809 808 806 806 807 808 809 810 814 821 823 820 817 825 834 833 834 836 838 839 839 839 839 839 839 838 838 838 838 839 840 840 839 838 838 837 837 836 836 835 834 833 831 830 828 827 825 824 822 820 818 817 815 813 811 809 807 806 804 802 800 799 797 795 794 792 791 790 788 787 784 782 780 778 776 774 771 770 767 766 764 761 759 757 754 752 751 749 747 744 742 742 742
808 808 808 808 808 809 807 807 808 808 809 810 812 819 825 823 816 818 827 832 834 836 837 839 838 838 839 838 838 837 837 837 837 838 838 838 838 837 837 836 836 835 835 834 833 832 830 828 827 825 824 822 820 819 817 815 814 811 809 807 805 803 802 800 798 796 794 793 792 790 789 787 786 784 782 780 778 776 774 772 770 768 765 763 762 760 757 754 751 749 747 746 744 742 740 739 737
808 809 812 811 809 809 808 807 809 808 809 809 810 819 826 823 815 815 823 830 833 835 836 838 837 837 837 837 837 836 836 836 837 837 837 838 837 837 836 835 835 834 834 833 832 831 829 827 825 824 822 821 819 817 816 814 811 809 806 804 802 801 799 797 795 793 791 790 788 787 786 785 784 782 780 778 775 773 771 769 767 765 763 761 759 757 755 752 749 746 743 742 740 738 737 736 735
810 813 815 816 815 811 807 808 810 808 808 807 810 819 820 816 816 819 823 828 832 835 836 836 836 836 836 836 836 835 835 836 837 837 837 837 836 836 835 834 834 834 833 833 831 830 827 826 823 822 820 818 817 815 813 811 809 806 804 802 800 798 796 794 792 790 788 787 785 783 783 781 780 779 777 775 772 770 768 766 764 762 760 759 756 754 752 749 747 743 740 739 737 735 732 731 731
814 817 819 824 824 813 807 810 810 809 809 805 810 821 815 810 818 822 822 825 829 832 834 835 835 836 836 835 835 835 836 836 837 836 836 835 835 834 834 833 833 833 833 831 830 828 826 823 821 819 817 815 813 812 810 809 807 804 802 800 799 797 795 793 791 789 787 785 783 781 780 779 777 776 775 772 769 767 765 762 760 758 757 755 753 751 749 747 744 741 739 737 734 731 728 725 725
818 821 823 830 829 816 808 809 809 808 808 806 810 820 815 811 818 822 823 826 828 830 833 834 834 835 835 834 834 835 836 836 835 834 834 834 833 833 833 832 832 832 831 830 828 825 823 821 818 815 813 811 810 810 809 807 805 803 802 800 799 797 794 792 791 789 787 785 783 780 778 777 775 774 772 770 767 764 761 758 756 754 753 751 749 748 746 744 742 739 736 735 732 728 724 721 720
822 824 823 825 828 824 815 809 808 808 808 808 810 814 812 811 818 822 824 826 827 829 831 833 833 834 834 834 834 834 834 834 833 832 832 831 831 832 832 831 831 830 829 828 825 823 820 817 813 811 811 811 810 809 808 806 804 803 802 800 798 795 793 792 790 788 786 784 781 779 776 774 772 770 769 767 764 761 758 755 752 751 749 747 745 744 743 741 739 736 733 732 730 726 721 718 716
824 826 823 822 825 827 821 811 809 810 811 810 810 812 808 809 817 820 822 825 826 827 829 830 832 832 832 833 833 832 831 831 830 830 829 829 830 830 831 831 830 828 827 826 823 820 817 813 811 811 812 811 810 808 806 805 804 803 800 798 796 794 792 792 790 787 784 782 779 777 774 771 769 767 765 763 761 757 755 752 749 747 746 744 741 739 738 737 736 734 731 728 726 724 719 714 711
827 827 824 825 824 825 823 815 810 811 813 812 813 813 808 808 816 818 819 823 824 825 827 829 830 831 831 831 831 829 828 828 828 828 827 828 828 829 829 828 827 825 825 823 821 818 814 812 812 812 811 810 809 807 806 804 802 800 797 795 793 791 789 788 788 785 782 781 778 774 772 769 766 763 762 760 757 754 751 748 745 743 742 740 737 735 734 733 732 731 729 724 721 719 716 711 707
824 826 827 827 826 823 820 815 811 812 813 813 814 812 806 807 814 816 817 820 823 825 827 829 829 829 829 829 828 827 826 825 826 826 826 826 827 827 826 825 823 823 823 821 819 816 813 812 811 811 811 810 809 807 805 803 800 797 795 792 789 788 786 784 785 784 781 778 776 772 769 766 763 760 759 757 754 751 747 744 741 739 738 736 733 732 730 729 728 727 725 722 718 714 711 709 705
824 826 827 827 828 823 816 814 812 813 815 811 810 811 807 806 810 812 814 818 823 825 826 827 828 827 826 826 825 824 824 823 824 824 824 824 824 824 823 822 821 821 821 819 816 814 812 811 811 811 812 810 809 807 804 802 800 796 792 789 786 784 783 781 779 779 777 774 772 769 765 763 760 758 755 754 751 748 745 741 738 735 733 732 729 727 726 725 724 723 721 720 717 713 708 705 705
824 826 827 828 831 824 815 815 814 814 817 811 808 812 809 805 806 809 813 816 818 819 821 822 823 824 823 823 822 822 822 822 822 822 822 822 821 821 820 819 820 820 819 817 815 813 812 812 812 813 812 811 808 806 804 802 801 798 794 790 786 782 781 779 776 774 771 769 768 766 763 760 758 755 753 750 747 744 742 738 735 731 729 727 725 723 722 721 720 720 718 716 713 712 706 701 703
825 829 831 828 829 825 817 816 817 816 817 812 809 811 809 804 803 805 809 810 810 812 813 815 817 819 820 820 819 819 820 820 820 820 819 819 818 818 818 819 819 819 818 816 814 813 813 812 813 813 811 809 807 805 804 802 799 798 795 791 788 782 778 776 773 771 769 765 763 763 761 759 756 753 750 747 744 741 738 736 732 729 725 723 721 718 717 716 715 715 715 713 709 707 704 698 698
826 829 831 826 825 826 819 817 820 818 818 816 812 811 809 805 801 799 804 805 807 811 813 815 815 815 815 815 815 815 816 816 816 816 816 816 816 817 818 818 818 817 816 814 813 813 812 813 812 811 809 808 806 804 802 800 797 794 793 790 788 784 779 775 770 767 765 762 759 758 757 756 754 751 748 745 742 738 735 733 729 726 723 720 717 714 712 711 711 710 710 710 707 703 699 694 692
825 826 828 824 821 823 820 822 824 818 817 816 813 809 802 801 797 791 801 808 807 811 813 815 815 814 813 813 813 812 812 812 812 813 814 814 815 816 816 816 816 815 814 814 814 813 812 812 811 809 808 806 804 802 800 797 795 792 789 786 783 780 776 773 770 764 760 757 755 754 753 752 750 747 745 742 739 735 732 730 727 723 720 716 713 710 708 707 706 706 705 705 705 701 697 692 688
826 821 820 819 818 819 821 825 825 821 819 816 817 811 797 796 797 792 802 809 806 811 812 811 812 812 811 811 810 810 809 809 810 810 811 813 814 814 815 815 814 814 814 814 814 813 811 811 809 807 806 804 801 800 798 795 794 791 788 784 780 776 771 768 768 765 761 757 753 751 749 748 746 743 740 738 735 732 729 726 724 720 717 713 710 707 704 702 701 701 701 700 700 699 696 691 685
829 821 818 820 821 822 823 825 825 824 823 820 822 821 806 797 792 788 798 804 804 810 810 808 809 808 808 808 806 807 807 807 808 809 810 811 812 813 813 813 814 814 814 814 812 811 810 808 806 804 802 801 800 798 797 795 793 791 789 787 784 781 775 768 766 764 760 757 753 748 746 744 742 740 736 735 732 729 726 723 720 717 714 710 707 704 700 698 697 696 697 696 694 694 694 690 685
825 823 823 822 821 823 824 826 827 827 829 824 821 824 819 804 789 784 793 800 803 808 807 805 804 803 804 805 804 803 804 804 805 807 808 810 810 812 813 813 813 813 812 812 810 809 808 806 803 802 800 799 798 797 796 795 792 790 788 785 783 780 777 771 766 762 757 754 750 746 743 740 738 737 733 731 729 726 722 719 716 713 710 707 705 702 697 695 693 692 692 691 690 689 690 688 683
820 824 827 823 823 826 825 828 830 833 836 825 816 824 823 803 787 790 797 799 799 802 802 800 798 798 801 802 801 801 801 802 804 805 807 808 810 811 812 812 812 811 811 809 808 807 805 803 801 799 798 797 796 795 794 793 791 789 786 783 779 776 774 770 765 760 756 751 746 742 740 737 734 732 730 727 724 722 719 715 712 709 706 704 702 698 694 692 689 687 686 686 685 683 684 685 681
821 826 827 825 828 829 829 832 833 838 839 822 812 820 818 792 778 792 804 798 791 789 791 793 792 795 799 798 799 799 800 801 803 804 806 807 808 809 809 810 809 809 808 807 806 805 802 799 798 796 796 795 794 794 792 791 789 787 784 781 777 773 769 766 761 757 753 749 744 739 736 733 730 727 725 723 720 717 715 712 708 706 703 701 698 694 690 689 686 683 681 681 680 678 678 680 679
823 826 824 823 829 832 835 838 837 838 829 811 806 811 812 795 776 782 788 777 771 773 781 788 790 793 796 795 796 796 798 800 801 803 804 805 806 807 807 807 807 806 805 805 804 801 798 795 795 794 794 793 792 791 790 789 787 785 783 780 776 772 768 764 758 753 750 747 742 737 733 730 726 723 720 718 716 713 710 707 704 702 699 697 694 691 688 686 683 680 677 676 675 674 673 674 673
823 824 824 822 824 829 834 837 839 833 811 799 809 813 815 801 773 771 772 761 761 765 769 777 781 786 790 791 793 794 795 797 800 801 802 803 804 804 805 804 804 804 803 803 800 795 793 793 793 792 792 792 790 789 788 786 784 782 780 777 774 771 767 763 758 752 748 745 740 735 731 727 722 720 717 714 712 710 706 703 700 698 695 693 691 688 685 683 681 678 674 672 670 669 668 669 668
824 826 828 826 826 826 825 824 827 822 803 803 816 815 811 790 762 761 763 757 761 761 758 763 769 778 784 787 790 791 794 795 797 799 799 801 802 801 803 802 801 802 801 798 793 791 792 792 792 790 789 788 787 786 785 783 781 779 777 775 771 768 765 761 758 752 748 744 740 734 729 724 719 715 713 710 708 706 702 699 696 693 691 689 687 684 682 679 677 674 671 668 666 664 664 664 663
826 824 822 822 827 828 822 817 818 811 800 806 818 812 799 776 755 754 752 750 758 759 756 759 763 772 778 783 787 788 792 793 794 796 797 798 800 799 800 799 799 800 796 792 789 789 790 790 789 788 786 785 784 782 781 779 778 776 774 772 768 765 761 758 755 751 746 742 737 733 728 723 718 713 709 707 704 702 698 695 692 689 687 685 683 680 678 676 673 670 668 665 662 660 659 659 659
826 822 820 818 819 821 817 811 806 800 797 807 819 808 782 761 754 759 759 759 761 757 758 762 764 772 777 781 786 787 789 791 791 794 795 796 797 797 797 797 797 796 790 787 787 788 788 787 787 785 783 781 780 779 777 775 774 772 770 768 765 762 759 755 751 747 743 738 734 729 725 720 716 711 706 703 701 698 694 690 688 685 683 681 678 676 674 672 670 666 663 661 659 657 655 654 654
826 827 823 816 811 809 811 812 810 812 811 809 808 791 765 754 756 763 768 766 763 761 763 766 768 773 777 780 783 785 787 789 790 791 792 793 794 795 795 796 794 790 785 785 786 786 786 785 784 783 781 779 777 776 774 772 769 767 765 763 760 758 754 750 746 743 739 735 730 725 721 716 712 707 703 699 697 694 690 686 683 680 678 677 674 672 671 668 665 662 658 657 656 653 651 649 649
822 825 815 814 816 809 807 815 823 828 818 797 785 773 757 752 752 759 768 764 764 769 766 766 769 772 776 778 780 784 785 786 788 789 790 791 792 793 793 792 789 784 784 786 785 785 784 783 782 780 778 776 775 773 771 769 766 763 760 757 755 752 749 746 742 738 734 729 725 721 716 712 707 703 699 695 692 689 686 682 678 676 674 672 670 667 667 665 662 659 654 652 651 649 647 645 644
816 816 809 812 819 814 813 819 822 826 817 791 778 770 754 747 748 759 772 767 764 770 768 768 772 772 775 776 779 782 782 784 786 787 789 790 790 791 790 787 784 783 785 785 784 783 782 781 780 778 775 773 771 770 767 766 763 759 756 753 750 747 744 741 737 733 729 724 719 715 711 706 702 699 694 691 688 685 682 679 674 672 669 667 666 663 662 662 660 656 651 647 646 645 643 640 639
813 813 812 811 811 811 817 823 816 816 813 790 773 766 748 739 740 748 761 764 760 767 771 769 770 770 773 775 777 780 780 782 784 785 787 788 788 788 785 782 781 783 785 783 782 780 779 779 778 775 773 770 768 766 763 761 758 755 752 749 746 743 739 736 732 727 723 718 713 709 705 701 697 693 690 686 684 680 677 674 670 668 666 663 661 658 657 657 656 653 648 644 642 642 640 637 635
818 816 816 812 810 809 810 815 808 806 808 789 773 765 739 723 725 726 741 755 754 761 769 766 764 766 769 772 775 777 778 780 782 783 785 785 784 782 779 780 782 783 782 780 779 778 776 776 775 772 770 767 765 764 760 757 754 751 749 745 742 739 735 731 727 723 718 713 709 704 699 696 692 688 685 681 678 676 672 669 666 663 661 659 656 653 651 652 652 649 645 641 639 638 637 635 633
813 816 815 812 812 811 809 809 802 800 805 796 789 772 731 714 721 716 725 743 745 753 761 758 759 763 767 770 771 773 776 778 780 781 782 781 779 778 778 780 782 781 780 778 776 776 774 773 772 769 767 764 761 760 757 755 752 748 745 741 738 735 731 727 723 718 714 709 704 700 695 691 687 683 680 676 673 670 667 665 661 658 656 655 652 649 647 647 647 645 641 638 636 634 634 633 632
797 801 802 800 802 806 808 805 798 798 797 788 790 769 717 708 726 719 722 736 739 747 752 750 756 761 763 766 768 771 773 775 777 777 777 777 776 777 778 779 780 779 777 775 774 774 772 770 769 767 764 762 759 756 754 751 748 745 742 739 735 731 727 723 718 713 709 704 700 696 691 686 682 677 675 671 667 665 662 660 656 653 651 650 648 645 642 642 642 641 637 635 633 632 631 631 630